FENGYUN 1C DEB

Satellite information

Favourite Embed

Satellite Type and Status

DEBRISIN ORBIT

Key statistics

Satellite FENGYUN 1C DEB at a glance.

Uptime

9615

Days in orbit

Revolutions

≈ 14.4

Per day

Orbit

SSO

Sun Synchronous Orbit

Inclination

99.0

Latest

Satellite identification and parameters

Extended collection of information and parameters for FENGYUN 1C DEB.

Object identification

Identified? True

Debris? True

Object name: FENGYUN 1C DEB

International designator: 1999-025ATX

Object number (NORAD): 30761

Object ID (CCSDS): 30761

Country: PEOPLES REPUBLIC OF CHINA (PRC)

Current information (Y/N): Y

RCS size: SMALL

Orbital parameters

Period: 100.347 minutes

Inclination: 98.9555 deg

SMA: 7153.122 km

Apoapsis: 835.052 km

Periapsis: 714.921 km

RAAN: 169.3053 deg

Eccentricy: 0.00839707

Argument of periapsis: 245.4803 deg

Mean anomaly: 113.7609 deg

Mean motion: 14.35024605 rev/day

Mean motion (dot): 0.00003456 rev/day2

B* drag term: 0.0011812789 1/REarth

Two-line elements (TLE)

Creation date: Sept. 4, 2025, 10:13 a.m.

Reference frame: TEME

Reference center: EARTH

Epoch: Sept. 4, 2025, 12:42 a.m. UTC

TLE line 0: 0 FENGYUN 1C DEB

TLE line 1: 1 30761U 99025ATX 25247.02932539 .00003456 00000-0 11813-2 0 9999

TLE line 2: 2 30761 98.9555 169.3053 0083971 245.4803 113.7609 14.35024605963118

Live tracking on map

Real-time ground track for satellite FENGYUN 1C DEB.

In-orbit conjunctions

A list of the most updated potential collisions computed for object FENGYUN 1C DEB.

Target Orbit TCA Probability of collision Miss distance Type
FENGYUN 1C DEB SSO 2024-11-15 20:41:27 0.0001875005 474.0 (m) DEBRIS
FENGYUN 1C DEB SSO 2024-11-13 15:29:28 0.0003683614 506.0 (m) DEBRIS
CZ-6A DEB LEO 2024-10-14 23:06:04 0.0001105396 90.0 (m) DEBRIS

Associated space launch

Chinese polar orbiting meteorological satellite

FENGYUN 1C DEB was lifted into orbit during the mission ‘Long March 4B | Feng Yun 1C’, on board a Long March 4B space rocket.

The launch took place on May 10, 1999, 1:33 a.m. from Launch Complex 7.

For more information about the launch, click the button.

Launch to space Long March 4B | Feng Yun 1C
Long March 4B | Feng Yun 1C

Agency: N/A

Status: Launch Successful

Launch date: May 10, 1999, 1:33 a.m. UTC

Rocket: Long March 4B

Launch pad: Launch Complex 7

Location: Taiyuan Satellite Launch Center, People's Republic of China

...

Latest news about this satellite

There are no fresh news available about this satellite. Check back as we update our databases every day.


Newsletter sign-up

Weekly statistics, charts and insights to help you stay on top of the space industry.